Location: Unspecified
(50.0000°N, 15.0000°E)
Time: 00:49:58
(UTC+01:00)

X-37B - Pass Details

Date: 08 December 2021
Orbit: 334 x 337 km, 45.0° (Epoch: 11 January)

Event Time Altitude Azimuth Distance (km) Brightness Sun altitude
Rises 18:35:03 0° 235° (SW) 2,098 5.3 -24.0°
Reaches altitude 10° 18:37:18 10° 219° (SW) 1,264 3.7 -24.4°
Enters shadow 18:37:40 12° 214° (SSW) 1,144 3.4 -24.4°
